AEROCUBE 6A

Last updated on Mon Sep 21 2026 00:03:44 GMT+0000 (Coordinated Universal Time)

1 40045U 14033AM 26263.44312759 .00002804 00000+0 23320-3 0 9994 2 40045 97.7321 69.4963 0038528 55.4801 305.0050 14.98953681660885
UTC large
Height (km)
Speed (km/s)
/
Latitude / Longitude
Inclination (degrees)
Orbital Period (minutes)
Azimuth
Elevation
Range (km)
Doppler Factor

Next 0 passes for location: London (51.5072 / 0.1276)

No passes found over London.
AEROCUBE 6A